WA6MEM Weather Reports


time (UTC)temp
F
wind
direction
speed
knots
gust
knots
rain 1hr
in
rain 24hr
in
rain mn
in
humidity
%
barometer
mb
20260508013514 61 192 2.6 0.0 0.00 0.00 0.00 84 1012.6
20260508013010 62 360 1.7 0.0 0.00 0.00 0.00 84 1012.6
20260508012510 62 172 1.7 0.0 0.00 0.00 0.00 83 1012.5
20260508012011 62 185 1.7 0.0 0.00 0.00 0.00 83 1012.5
20260508011509 62 197 1.7 0.0 0.00 0.00 0.00 83 1012.5
20260508011009 62 360 2.6 0.0 0.00 0.00 0.00 83 1012.7
20260508010509 62 179 2.6 0.0 0.00 0.00 0.00 82 1012.7
20260508010010 63 177 2.6 0.0 0.00 0.00 0.00 82 1012.7
20260508005508 63 161 2.6 0.0 0.00 0.00 0.00 82 1012.6
20260508005012 63 174 2.6 0.0 0.00 0.00 0.00 82 1012.6
20260508004508 63 198 2.6 0.0 0.00 0.00 0.00 81 1012.6
20260508004012 64 188 2.6 0.0 0.00 0.00 0.00 80 1012.7
20260508003512 64 161 1.7 0.0 0.00 0.00 0.00 80 1012.7
20260508003009 65 157 1.7 0.0 0.00 0.00 0.00 79 1012.7
20260508002511 65 159 1.7 0.0 0.00 0.00 0.00 79 1012.7
20260508002008 65 169 1.7 0.0 0.00 0.00 0.00 79 1012.7
20260508001508 65 187 2.6 0.0 0.00 0.00 0.00 79 1012.7
20260508001007 65 209 2.6 0.0 0.00 0.00 0.00 79 1012.6
20260508000508 66 169 2.6 0.0 0.00 0.00 0.00 78 1012.6
20260508000006 66 219 2.6 0.0 0.00 0.00 0.00 78 1012.6
20260507235510 66 169 1.7 0.0 0.00 0.00 0.00 79 1012.6
20260507235005 65 186 1.7 0.0 0.00 0.00 0.00 79 1012.6
20260507234507 65 188 2.6 0.0 0.00 0.00 0.00 81 1012.6
20260507234006 65 122 2.6 0.0 0.00 0.00 0.00 81 1012.6
20260507233505 65 173 2.6 0.0 0.00 0.00 0.00 81 1012.6
20260507233011 65 164 2.6 0.0 0.00 0.00 0.00 81 1012.7
20260507232506 64 136 3.5 0.0 0.00 0.00 0.00 81 1012.7
20260507232004 64 174 3.5 0.0 0.00 0.00 0.00 81 1012.7
20260507231504 65 176 3.5 0.0 0.00 0.00 0.00 81 1012.7
20260507231004 65 150 3.5 0.0 0.00 0.00 0.00 81 1012.7
20260507230504 65 167 3.5 0.0 0.00 0.00 0.00 81 1012.7
20260507230005 65 155 3.5 0.0 0.00 0.00 0.00 80 1012.7
20260507225503 65 163 2.6 0.0 0.00 0.00 0.00 81 1012.7
20260507225004 65 155 3.5 0.0 0.00 0.00 0.00 81 1012.7
20260507224502 65 167 3.5 0.0 0.00 0.00 0.00 80 1013.0
20260507224004 65 169 2.6 0.0 0.00 0.00 0.00 79 1013.0
20260507223502 66 194 2.6 0.0 0.00 0.00 0.00 79 1013.0
20260507223001 65 166 2.6 0.0 0.00 0.00 0.00 78 1013.1
20260507222603 65 229 2.6 0.0 0.00 0.00 0.00 79 1013.1
20260507222101 65 360 3.5 0.0 0.00 0.00 0.00 80 1013.1
20260507221559 65 159 3.5 0.0 0.00 0.00 0.00 80 1013.1
20260507221058 65 172 2.6 0.0 0.00 0.00 0.00 80 1013.3
20260507220558 65 360 2.6 0.0 0.00 0.00 0.00 81 1013.3
20260507220058 64 196 3.5 0.0 0.00 0.00 0.00 81 1013.3
20260507215558 64 178 3.5 0.0 0.00 0.00 0.00 80 1013.4
20260507215058 65 187 2.6 0.0 0.00 0.00 0.00 81 1013.4
20260507214606 64 163 2.6 0.0 0.00 0.00 0.00 82 1013.4
20260507214057 64 140 2.6 0.0 0.00 0.00 0.00 81 1013.7
20260507213557 64 104 3.5 0.0 0.00 0.00 0.00 82 1013.7
20260507213058 64 205 3.5 0.0 0.00 0.00 0.00 82 1013.7
20260507212556 64 173 2.6 0.0 0.00 0.00 0.00 82 1013.8
20260507212100 64 178 3.5 0.0 0.00 0.00 0.00 82 1013.8
20260507211601 64 166 3.5 0.0 0.00 0.00 0.00 83 1013.8
20260507211056 64 145 3.5 0.0 0.00 0.00 0.00 82 1013.9
20260507210556 64 155 3.5 0.0 0.00 0.00 0.00 82 1013.9
20260507205554 65 213 2.6 0.0 0.00 0.00 0.00 82 1014.0
20260507205055 65 217 3.5 0.0 0.00 0.00 0.00 81 1014.0
20260507204555 65 216 3.5 0.0 0.00 0.00 0.00 83 1014.0
20260507204057 64 167 2.6 0.0 0.00 0.00 0.00 83 1014.2
20260507203554 64 166 3.5 0.0 0.00 0.00 0.00 83 1014.2
20260507203106 64 178 2.6 0.0 0.00 0.00 0.00 82 1014.2
20260507202552 64 172 3.5 0.0 0.00 0.00 0.00 83 1014.2
20260507202052 64 227 3.5 0.0 0.00 0.00 0.00 81 1014.2
20260507201559 64 225 2.6 0.0 0.00 0.00 0.00 81 1014.2
20260507201055 65 186 2.6 0.0 0.00 0.00 0.00 81 1014.2
20260507200553 64 182 2.6 0.0 0.00 0.00 0.00 82 1014.2
20260507200106 64 234 2.6 0.0 0.00 0.00 0.00 82 1014.2
20260507195551 64 201 2.6 0.0 0.00 0.00 0.00 83 1014.2
20260507195052 65 161 2.6 0.0 0.00 0.00 0.00 81 1014.2
20260507194551 65 197 2.6 0.0 0.00 0.00 0.00 81 1014.2
20260507194050 65 179 2.6 0.0 0.00 0.00 0.00 81 1014.5
20260507193550 65 187 2.6 0.0 0.00 0.00 0.00 80 1014.5
20260507193051 65 211 2.6 0.0 0.00 0.00 0.00 82 1014.5
20260507192551 65 165 2.6 0.0 0.00 0.00 0.00 82 1014.7
20260507192050 65 190 2.6 0.0 0.00 0.00 0.00 81 1014.7
20260507191549 64 237 2.6 0.0 0.00 0.00 0.00 82 1014.7
20260507191049 64 198 2.6 0.0 0.00 0.00 0.00 82 1014.7
20260507190551 64 180 2.6 0.0 0.00 0.00 0.00 81 1014.7
20260507190054 64 267 2.6 0.0 0.00 0.00 0.00 81 1014.7
20260507185551 64 164 2.6 0.0 0.00 0.00 0.00 83 1014.8
20260507185046 64 169 2.6 0.0 0.00 0.00 0.00 83 1014.8
20260507184551 64 136 2.6 0.0 0.00 0.00 0.00 82 1014.8
20260507184044 64 171 2.6 0.0 0.00 0.00 0.00 84 1014.8
20260507183544 63 204 2.6 0.0 0.00 0.00 0.00 84 1014.8
20260507183048 63 161 2.6 0.0 0.00 0.00 0.00 85 1014.8
20260507182545 63 159 2.6 0.0 0.00 0.00 0.00 83 1014.8
20260507182046 64 186 2.6 0.0 0.00 0.00 0.00 83 1014.8
20260507181543 64 219 2.6 0.0 0.00 0.00 0.00 83 1014.8
20260507181042 64 201 2.6 0.0 0.00 0.00 0.00 84 1014.9
20260507180544 63 186 1.7 0.0 0.00 0.00 0.00 84 1014.9
20260507180046 63 142 1.7 0.0 0.00 0.00 0.00 85 1014.9
20260507175546 63 160 2.6 0.0 0.00 0.00 0.00 84 1014.8
20260507175038 62 239 2.6 0.0 0.00 0.00 0.00 85 1014.8
20260507174539 62 172 2.6 0.0 0.00 0.00 0.00 86 1014.8
20260507174037 62 176 1.7 0.0 0.00 0.00 0.00 86 1015.0
20260507173537 62 200 1.7 0.0 0.00 0.00 0.00 87 1015.0
20260507173037 61 161 1.7 0.0 0.00 0.00 0.00 87 1015.0
20260507172538 61 123 2.6 0.0 0.00 0.00 0.00 87 1015.0
20260507172036 61 149 2.6 0.0 0.00 0.00 0.00 87 1015.0
20260507171536 61 132 2.6 0.0 0.00 0.00 0.00 86 1015.0
20260507171036 62 188 2.6 0.0 0.00 0.00 0.00 86 1015.0
20260507170536 62 159 1.7 0.0 0.00 0.00 0.00 85 1015.0
20260507170036 62 184 1.7 0.0 0.00 0.00 0.00 87 1015.0
20260507165533 62 209 1.7 0.0 0.00 0.00 0.00 88 1015.0
20260507165034 61 238 1.7 0.0 0.00 0.00 0.00 88 1015.0
20260507164541 61 166 1.7 0.0 0.00 0.00 0.00 86 1015.0
20260507164032 61 151 1.7 0.0 0.00 0.00 0.00 88 1015.0
20260507163531 61 221 1.7 0.0 0.00 0.00 0.00 88 1015.0
20260507163031 61 213 1.7 0.0 0.00 0.00 0.00 88 1015.0
20260507162531 61 192 1.7 0.0 0.00 0.00 0.00 89 1015.0
20260507162030 60 207 1.7 0.0 0.00 0.00 0.00 88 1015.0
20260507161530 60 211 0.9 0.0 0.00 0.00 0.00 89 1015.0
20260507161028 60 113 0.9 0.0 0.00 0.00 0.00 90 1015.1
20260507160527 60 163 1.7 0.0 0.00 0.00 0.00 90 1015.1
20260507160028 59 169 1.7 0.0 0.00 0.00 0.00 90 1015.1
20260507155525 59 165 1.7 0.0 0.00 0.00 0.00 91 1015.0
20260507155025 59 165 1.7 0.0 0.00 0.00 0.00 91 1015.0
20260507154525 59 157 1.7 0.0 0.00 0.00 0.00 90 1015.0
20260507154025 59 190 1.7 0.0 0.00 0.00 0.00 90 1015.0
20260507153525 59 146 1.7 0.0 0.00 0.00 0.00 90 1015.0
20260507153025 59 179 0.9 0.0 0.00 0.00 0.00 91 1015.0
20260507152524 59 136 0.9 0.0 0.00 0.00 0.00 90 1015.1
20260507152024 59 196 1.7 0.0 0.00 0.00 0.00 90 1015.1
20260507151523 59 155 1.7 0.0 0.00 0.00 0.00 90 1015.1
20260507151023 58 153 0.9 0.0 0.00 0.00 0.00 90 1015.1
20260507150521 58 148 0.9 0.0 0.00 0.00 0.00 90 1015.1
20260507150024 57 28 0.9 0.0 0.00 0.00 0.00 91 1015.1
20260507145521 57 169 0.9 0.0 0.00 0.00 0.00 91 1015.0
20260507145018 57 169 0.9 0.0 0.00 0.00 0.00 91 1015.0
20260507144524 56 164 0.9 0.0 0.00 0.00 0.00 91 1015.0
20260507144017 56 164 0.9 0.0 0.00 0.00 0.00 91 1015.1
20260507143515 56 164 0.9 0.0 0.00 0.00 0.00 92 1015.1
20260507143015 56 164 0.0 0.0 0.00 0.00 0.00 92 1015.1
20260507142514 56 164 0.0 0.0 0.00 0.00 0.00 93 1015.0
20260507142015 55 164 0.0 0.0 0.00 0.00 0.00 93 1015.0
20260507141514 55 164 0.0 0.0 0.00 0.00 0.00 93 1015.0
20260507141014 55 164 0.0 0.0 0.00 0.00 0.00 94 1014.8
20260507140515 55 164 0.0 0.0 0.00 0.00 0.00 94 1014.8
20260507140013 54 164 0.0 0.0 0.00 0.00 0.00 94 1014.8
20260507135512 54 164 0.0 0.0 0.00 0.00 0.00 94 1014.7
20260507135012 53 164 0.0 0.0 0.00 0.00 0.00 94 1014.7
20260507134513 53 164 0.0 0.0 0.00 0.00 0.00 94 1014.7
20260507134014 53 164 0.0 0.0 0.00 0.00 0.00 94 1014.6
20260507133511 52 164 0.0 0.0 0.00 0.00 0.00 93 1014.6
20260507133011 52 164 0.0 0.0 0.00 0.00 0.00 93 1014.6
20260507132511 52 164 0.0 0.0 0.00 0.00 0.00 93 1014.6
20260507132011 52 164 0.0 0.0 0.00 0.00 0.00 93 1014.6
20260507131511 52 164 0.9 0.0 0.00 0.00 0.00 93 1014.6
20260507131011 52 164 0.9 0.0 0.00 0.00 0.00 93 1014.5
20260507130510 52 156 0.0 0.0 0.00 0.00 0.00 92 1014.5
20260507130010 52 60 0.0 0.0 0.00 0.00 0.00 92 1014.5
20260507125508 52 60 0.0 0.0 0.00 0.00 0.00 91 1014.4
20260507125008 52 60 0.0 0.0 0.00 0.00 0.00 92 1014.4
20260507124510 52 60 0.0 0.0 0.00 0.00 0.00 92 1014.4
20260507124008 52 60 0.0 0.0 0.00 0.00 0.00 92 1014.4
20260507123512 52 60 0.0 0.0 0.00 0.00 0.00 91 1014.4
20260507123009 53 60 0.0 0.0 0.00 0.00 0.00 91 1014.4
20260507122511 53 60 0.0 0.0 0.00 0.00 0.00 92 1014.4
20260507122007 52 60 0.0 0.0 0.00 0.00 0.00 92 1014.4
20260507121507 53 60 0.0 0.0 0.00 0.00 0.00 92 1014.4
20260507121007 52 60 0.0 0.0 0.00 0.00 0.00 92 1014.3
20260507120506 52 60 0.0 0.0 0.00 0.00 0.00 92 1014.3
20260507120007 52 60 0.0 0.0 0.00 0.00 0.00 91 1014.3
20260507115506 53 60 0.0 0.0 0.00 0.00 0.00 91 1014.3
20260507115008 53 60 0.0 0.0 0.00 0.00 0.00 90 1014.3
20260507114506 53 60 0.0 0.0 0.00 0.00 0.00 91 1014.3
20260507114006 53 60 0.9 0.0 0.00 0.00 0.00 92 1014.2
20260507113508 53 60 0.9 0.0 0.00 0.00 0.00 92 1014.2
20260507113012 53 60 0.9 0.0 0.00 0.00 0.00 91 1014.2
20260507112507 53 60 0.9 0.0 0.00 0.00 0.00 91 1014.3
20260507112005 53 60 0.9 0.0 0.00 0.00 0.00 91 1014.3
20260507111504 53 60 0.9 0.0 0.00 0.00 0.00 91 1014.3
20260507111003 53 60 0.9 0.0 0.00 0.00 0.00 91 1014.4
20260507110503 53 60 1.7 0.0 0.00 0.00 0.00 91 1014.4
20260507110003 53 39 1.7 0.0 0.00 0.00 0.00 92 1014.5
20260507105502 52 39 0.9 0.0 0.00 0.00 0.00 90 1014.5
20260507105003 53 250 0.9 0.0 0.00 0.00 0.00 91 1014.5
20260507104502 53 250 0.0 0.0 0.00 0.00 0.00 91 1014.6
20260507104001 53 250 0.0 0.0 0.00 0.00 0.00 91 1014.6
20260507103501 53 250 0.0 0.0 0.00 0.00 0.00 91 1014.6
20260507103100 53 250 0.0 0.0 0.00 0.00 0.00 91 1014.6
20260507102600 53 250 0.0 0.0 0.00 0.00 0.00 91 1014.7
20260507102100 53 250 0.0 0.0 0.00 0.00 0.00 91 1014.7
20260507101613 53 250 0.0 0.0 0.00 0.00 0.00 91 1014.7
20260507101102 53 250 0.0 0.0 0.00 0.00 0.00 91 1014.7
20260507100559 53 250 0.0 0.0 0.00 0.00 0.00 91 1014.7
20260507095558 53 250 0.9 0.0 0.00 0.00 0.00 90 1014.8
20260507095056 53 250 0.9 0.0 0.00 0.00 0.00 90 1014.8
20260507094604 53 250 0.0 0.0 0.00 0.00 0.00 90 1014.8
20260507094059 53 250 0.0 0.0 0.00 0.00 0.00 90 1014.9
20260507093555 53 250 0.0 0.0 0.00 0.00 0.00 89 1014.9
20260507093054 54 250 0.0 0.0 0.00 0.00 0.00 90 1014.9
20260507092554 54 250 0.9 0.0 0.00 0.00 0.00 90 1014.9
20260507092056 54 250 0.0 0.0 0.00 0.00 0.00 90 1014.9
20260507091553 54 166 0.0 0.0 0.00 0.00 0.00 90 1014.9
20260507091053 54 166 0.0 0.0 0.00 0.00 0.00 90 1015.1
20260507090553 54 166 0.0 0.0 0.00 0.00 0.00 89 1015.1
20260507090052 54 166 0.9 0.0 0.00 0.00 0.00 89 1015.1
20260507085553 54 166 0.9 0.0 0.00 0.00 0.00 89 1015.2
20260507085051 54 166 0.9 0.0 0.00 0.00 0.00 89 1015.2
20260507084557 54 166 0.0 0.0 0.00 0.00 0.00 89 1015.2
20260507084052 54 202 0.0 0.0 0.00 0.00 0.00 89 1015.4
20260507083549 55 248 0.0 0.0 0.00 0.00 0.00 88 1015.4
20260507083051 55 247 0.0 0.0 0.00 0.00 0.00 89 1015.4
20260507082548 55 247 0.0 0.0 0.00 0.00 0.00 88 1015.4
20260507082048 55 248 0.9 0.0 0.00 0.00 0.00 88 1015.4
20260507081548 55 248 0.9 0.0 0.00 0.00 0.00 88 1015.4
20260507081048 55 211 1.7 0.0 0.00 0.00 0.00 88 1015.4
20260507080548 55 258 1.7 0.0 0.00 0.00 0.00 88 1015.4
20260507075547 55 268 1.7 0.0 0.00 0.00 0.00 88 1015.4
20260507075047 55 277 2.6 0.0 0.00 0.00 0.00 88 1015.4
20260507074548 55 293 2.6 0.0 0.00 0.00 0.00 88 1015.4
20260507074045 55 302 2.6 0.0 0.00 0.00 0.00 88 1015.5
20260507073545 55 283 2.6 0.0 0.00 0.00 0.00 88 1015.5
20260507073050 55 259 3.5 0.0 0.00 0.00 0.00 89 1015.5
20260507072543 55 289 3.5 0.0 0.00 0.00 0.00 89 1015.7
20260507072042 54 285 3.5 0.0 0.00 0.00 0.00 90 1015.7
20260507071542 54 302 3.5 0.0 0.00 0.00 0.00 90 1015.7
20260507071043 54 269 3.5 0.0 0.00 0.00 0.00 91 1015.7
20260507070542 55 296 4.3 0.0 0.00 0.00 0.00 91 1015.7
20260507070040 55 276 4.3 0.0 0.00 0.00 0.01 91 1015.7
20260507065542 55 316 4.3 0.0 0.00 0.00 0.01 91 1015.6
20260507065039 55 277 4.3 0.0 0.00 0.00 0.01 91 1015.6
20260507064539 55 283 3.5 0.0 0.00 0.00 0.01 91 1015.6
20260507064039 55 343 3.5 0.0 0.00 0.00 0.01 91 1015.8
20260507063540 55 288 3.5 0.0 0.00 0.00 0.01 91 1015.8
20260507063040 55 261 3.5 0.0 0.00 0.00 0.01 91 1015.8
20260507062539 55 307 3.5 0.0 0.00 0.00 0.01 91 1015.9
20260507062039 55 316 3.5 0.0 0.00 0.00 0.01 91 1015.9
20260507061539 55 275 4.3 0.0 0.00 0.00 0.01 91 1015.9
20260507061038 55 301 3.5 0.0 0.00 0.00 0.01 91 1015.8
20260507060539 55 292 3.5 0.0 0.00 0.00 0.01 91 1015.8
20260507060038 55 299 3.5 0.0 0.00 0.00 0.01 91 1015.8
20260507055538 55 283 3.5 0.0 0.00 0.00 0.01 91 1015.9
20260507055039 55 275 3.5 0.0 0.00 0.00 0.01 91 1015.9
20260507054539 55 222 3.5 0.0 0.00 0.00 0.01 91 1015.9
20260507054038 55 284 2.6 0.0 0.00 0.00 0.01 91 1015.8
20260507053538 55 273 1.7 0.0 0.00 0.00 0.01 91 1015.8
20260507053038 55 262 1.7 0.0 0.00 0.00 0.01 91 1015.8
20260507052537 55 273 2.6 0.0 0.00 0.00 0.01 90 1015.9
20260507052037 55 271 2.6 0.0 0.00 0.00 0.01 90 1015.9
20260507051537 55 302 2.6 0.0 0.00 0.00 0.01 90 1015.9
20260507051036 55 260 2.6 0.0 0.00 0.00 0.01 90 1015.8
20260507050538 55 278 2.6 0.0 0.00 0.00 0.01 90 1015.8
20260507050037 55 259 2.6 0.0 0.00 0.00 0.01 90 1015.8
20260507045536 55 286 1.7 0.0 0.00 0.00 0.01 90 1015.8
20260507045035 55 234 2.6 0.0 0.00 0.00 0.01 90 1015.8
20260507044537 55 296 1.7 0.0 0.00 0.00 0.01 91 1015.8
20260507044036 55 273 1.7 0.0 0.00 0.00 0.01 91 1015.6
20260507043536 55 217 1.7 0.0 0.00 0.00 0.01 91 1015.6
20260507043036 55 232 2.6 0.0 0.00 0.00 0.01 91 1015.6
20260507042537 55 189 2.6 0.0 0.00 0.00 0.01 91 1015.6
20260507042035 55 169 2.6 0.0 0.00 0.00 0.01 90 1015.6
20260507041536 55 229 2.6 0.0 0.00 0.00 0.01 89 1015.6
20260507041035 56 211 2.6 0.0 0.00 0.00 0.01 89 1015.6
20260507040536 56 194 1.7 0.0 0.00 0.00 0.01 88 1015.6
20260507040036 56 217 1.7 0.0 0.00 0.00 0.01 88 1015.6
20260507035534 56 167 1.7 0.0 0.00 0.00 0.01 87 1015.5
20260507035034 57 157 1.7 0.0 0.00 0.00 0.01 86 1015.5
20260507034537 57 159 2.6 0.0 0.00 0.00 0.01 84 1015.5
20260507034034 57 151 3.5 0.0 0.00 0.00 0.01 83 1015.3
20260507033534 57 276 3.5 0.0 0.00 0.00 0.01 83 1015.3
20260507033034 57 162 3.5 0.0 0.00 0.00 0.01 83 1015.3
20260507032535 57 237 4.3 0.0 0.00 0.00 0.01 83 1015.0
20260507032038 57 298 4.3 0.0 0.00 0.00 0.01 85 1015.0
20260507031534 56 263 3.5 0.0 0.00 0.00 0.01 86 1015.0
20260507031036 56 306 4.3 0.0 0.00 0.00 0.01 85 1015.1
20260507030534 56 269 4.3 0.0 0.00 0.00 0.01 86 1015.1
20260507030032 56 247 5.2 0.0 0.00 0.00 0.01 86 1015.1
20260507025533 56 244 5.2 0.0 0.00 0.00 0.01 85 1015.0
20260507025033 57 286 4.3 0.0 0.00 0.00 0.01 85 1015.0
20260507024533 57 244 4.3 0.0 0.00 0.00 0.01 83 1015.0
20260507024032 57 299 5.2 0.0 0.00 0.00 0.01 82 1014.8
20260507023532 57 259 5.2 0.0 0.00 0.00 0.01 81 1014.8
20260507023034 58 270 5.2 0.0 0.00 0.00 0.01 80 1014.8
20260507022533 58 271 5.2 0.0 0.00 0.00 0.01 79 1014.7
20260507022034 58 229 5.2 0.0 0.00 0.00 0.01 80 1014.7
20260507021534 57 298 5.2 0.0 0.00 0.00 0.01 82 1014.7
20260507021034 58 292 5.2 0.0 0.00 0.00 0.01 83 1014.7
20260507020532 58 309 4.3 0.0 0.00 0.00 0.01 83 1014.7
20260507020040 59 242 3.5 0.0 0.00 0.00 0.01 82 1014.7
20260507015531 59 127 3.5 0.0 0.00 0.00 0.01 81 1014.7
20260507015031 58 217 4.3 0.0 0.00 0.00 0.01 81 1014.7
20260507014532 58 250 5.2 0.0 0.00 0.00 0.01 80 1014.7
20260507014031 58 141 5.2 0.0 0.00 0.00 0.01 81 1014.6